Regional Weather Roundup
Issued by NWS Cleveland, OH

Home | Current Version | Previous Version | Graphics & Text | Print | Product List | Glossary On
Versions: 1 2 3 4 5 6 7 8 9 10 11 12 13 14 15 16 17 18 19 20 21 22 23 24 25 26 27 28 29 30 31 32 33 34 35 36 37 38 39 40 41 42 43 44 45 46 47 48 49 50
000
ASUS41 KCLE 220000
RWRCLE
OHIO REGIONAL WEATHER ROUNDUP
NATIONAL WEATHER SERVICE WILMINGTON, OH
800 PM EDT SAT OCT 21 2017

NOTE: "FAIR" INDICATES FEW OR NO CLOUDS BELOW 12,000 FEET WITH NO
SIGNIFICANT WEATHER AND/OR OBSTRUCTIONS TO VISIBILITY.

OHZ001>008-015>018-024>027-034-035-043-044-220100-
   NORTHWEST OHIO

CITY           SKY/WX    TMP DP  RH WIND       PRES   REMARKS
DEFIANCE       FAIR      67  43  41 S6        30.16R
FINDLAY        FAIR      60  40  47 S9        30.18R
TOLEDO EXPRESS FAIR      61  55  81 S5        30.16R
TOLEDO EXEC    FAIR      64  51  62 S6        30.18R
LIMA           FAIR      63  43  48 S8        30.20R
$$

OHZ009>014-019>023-028>033-038-089-220100-
   NORTHEAST OHIO

CITY           SKY/WX    TMP DP  RH WIND       PRES   REMARKS
CLE-HOPKINS    MOCLDY    66  51  58 SE9       30.24R
CLE-LAKEFRONT  FAIR      69  47  45 S14       30.22R
CUY CO. ARPT   MOCLDY    68  46  45 S7        30.24R
LORAIN-ELYRIA  FAIR      65  46  50 S9        30.23R
ASHTABULA      FAIR      64  51  62 S5        30.25S
AKRON-CANTON   CLOUDY    62  49  62 S7        30.26R
WOOSTER        NOT AVBL
MANSFIELD      FAIR      64  51  62 SE8       30.24R
YOUNGSTOWN     MOCLDY    63  51  65 SE6       30.26R
$$

OHZ042-051>053-060>062-070>072-077>081-220100-
  SOUTHWEST OHIO

CITY           SKY/WX    TMP DP  RH WIND       PRES   REMARKS
CINC-COVINGTON MOCLDY    63  51  65 SE6       30.21R
CINC-LUNKEN    FAIR      56  54  93 CALM      30.22R
HAMILTON       FAIR      57  51  80 CALM      30.22R
DAYTON         NOT AVBL
WRIGHT-PAT AFB NOT AVBL
DAYTON GENERAL FAIR      63  50  62 SE5       30.21S
WILMINGTON     FAIR      62  52  69 SE6       30.23S
$$

OHZ036-037-039>041-045>050-054>059-063>069-073>076-082>088-220100-
  CENTRAL AND SOUTHEAST OHIO

CITY           SKY/WX    TMP DP  RH WIND       PRES   REMARKS
COLUMBUS       MOCLDY    67  53  61 S3        30.24R
OSU AIRPORT    FAIR      67  51  56 S6        30.23R
BOLTON FIELD   FAIR      62  50  63 S5        30.24R
RICKENBACK AFB FAIR      61  49  65 SE3       30.23S
NEWARK         FAIR      60  53  77 CALM      30.24R
MARION         FAIR      65  51  60 S7        30.22S
LANCASTER      FAIR      58  52  80 CALM      30.25R
ZANESVILLE     FAIR      63  52  67 SE3       30.26R
NEW PHILLY     FAIR      60  53  77 E3        30.26R
$$




USA.gov is the U.S. government's official web portal to all federal, state and local government web resources and services.